CEB612 RPSP-RPLL

Flight info

Callsign CEB612
Flight time 0h 58m
Altitude 36000
Route LAMOK2P LAMOK B473 LAIYA LAIYA3R
Aircraft A339/H-SADE1E2E3GHIJ3J5M1P2RWXY/LB2D1

Departure

Time 2026-04-26 14:40
Airport Bohol-Panglao International Airport (RPSP)

Arrival

Time 2026-04-26 15:38
Airport Ninoy Aquino International Airport (RPLL)
Time Latitude Longitude Altitude Speed Heading
2026-04-26 14:25 9.56958 123.77175 56 ft 0 kts 121°
2026-04-26 14:30 9.56961 123.77170 56 ft 2 kts 121°
2026-04-26 14:30 9.56969 123.77157 56 ft 2 kts 121°
2026-04-26 14:31 9.56976 123.77145 56 ft 2 kts 121°
2026-04-26 14:31 9.56984 123.77132 56 ft 2 kts 135°
2026-04-26 14:31 9.56996 123.77123 56 ft 2 kts 161°
2026-04-26 14:31 9.57011 123.77120 56 ft 2 kts 183°
2026-04-26 14:32 9.57025 123.77123 56 ft 2 kts 205°
2026-04-26 14:32 9.57031 123.77126 56 ft 1 kts 212°
2026-04-26 14:32 9.57033 123.77127 56 ft 0 kts 211°
2026-04-26 14:32 9.57032 123.77127 56 ft 0 kts 211°
2026-04-26 14:35 9.57020 123.77119 56 ft 4 kts 211°
2026-04-26 14:35 9.56981 123.77097 56 ft 8 kts 211°
2026-04-26 14:35 9.56917 123.77058 56 ft 12 kts 210°
2026-04-26 14:36 9.56852 123.77016 56 ft 9 kts 225°
2026-04-26 14:36 9.56850 123.76952 56 ft 11 kts 301°
2026-04-26 14:36 9.56893 123.76881 56 ft 12 kts 302°
2026-04-26 14:36 9.56916 123.76799 56 ft 12 kts 250°
2026-04-26 14:37 9.56848 123.76740 56 ft 14 kts 209°
2026-04-26 14:37 9.56752 123.76685 56 ft 16 kts 211°
2026-04-26 14:37 9.56648 123.76623 56 ft 17 kts 210°
2026-04-26 14:37 9.56554 123.76566 56 ft 10 kts 210°
2026-04-26 14:38 9.56482 123.76550 56 ft 10 kts 188°
2026-04-26 14:38 9.56433 123.76535 56 ft 5 kts 218°
2026-04-26 14:38 9.56438 123.76515 56 ft 4 kts 346°
2026-04-26 14:38 9.56476 123.76521 56 ft 5 kts 22°
2026-04-26 14:39 9.56491 123.76529 56 ft 0 kts 30°
2026-04-26 14:39 9.56602 123.76595 56 ft 58 kts 31°
2026-04-26 14:39 9.57206 123.76955 57 ft 139 kts 31°
2026-04-26 14:40 9.58157 123.77537 574 ft 164 kts 34°
2026-04-26 14:40 9.59123 123.78101 1495 ft 165 kts 22°
2026-04-26 14:40 9.60261 123.78099 2187 ft 174 kts 354°
2026-04-26 14:40 9.61498 123.77838 2636 ft 191 kts 353°
2026-04-26 14:41 9.62882 123.77589 3107 ft 208 kts 355°
2026-04-26 14:41 9.64368 123.77344 3583 ft 226 kts 355°
2026-04-26 14:41 9.65989 123.77086 4110 ft 242 kts 354°
2026-04-26 14:41 9.67660 123.76820 4847 ft 248 kts 354°
2026-04-26 14:42 9.69378 123.76544 5648 ft 250 kts 354°
2026-04-26 14:42 9.71104 123.76270 6411 ft 253 kts 354°
2026-04-26 14:42 9.72839 123.75994 7145 ft 256 kts 354°
2026-04-26 14:42 9.74611 123.75714 7863 ft 259 kts 354°
2026-04-26 14:43 9.76393 123.75433 8555 ft 263 kts 354°
2026-04-26 14:43 9.78225 123.75194 9251 ft 265 kts 358°
2026-04-26 14:43 9.80086 123.75102 9794 ft 274 kts
2026-04-26 14:43 9.82040 123.75074 10160 ft 290 kts
2026-04-26 14:44 9.84154 123.75052 10498 ft 308 kts
2026-04-26 14:44 9.86343 123.75028 10807 ft 326 kts
2026-04-26 14:44 9.88660 123.74908 11353 ft 336 kts 353°
2026-04-26 14:44 9.90944 123.74295 12054 ft 342 kts 341°
2026-04-26 14:45 9.93093 123.73216 12753 ft 346 kts 333°
2026-04-26 14:45 9.94498 123.72404 13211 ft 348 kts 332°
2026-04-26 14:45 9.97298 123.70747 14086 ft 352 kts 332°
2026-04-26 14:45 9.99451 123.69473 14754 ft 355 kts 332°
2026-04-26 14:46 10.01585 123.68215 15409 ft 357 kts 332°
2026-04-26 14:46 10.03764 123.66936 16060 ft 360 kts 332°
2026-04-26 14:46 10.05953 123.65656 16700 ft 363 kts 332°
2026-04-26 14:46 10.08168 123.64362 17338 ft 365 kts 332°
2026-04-26 14:47 10.10351 123.63088 17938 ft 368 kts 332°
2026-04-26 14:47 10.12610 123.61769 18528 ft 372 kts 331°
2026-04-26 14:47 10.14864 123.60453 19088 ft 376 kts 331°
2026-04-26 14:47 10.17142 123.59122 19638 ft 380 kts 331°
2026-04-26 14:48 10.19444 123.57777 20173 ft 384 kts 331°
2026-04-26 14:48 10.21785 123.56408 20696 ft 388 kts 330°
2026-04-26 14:48 10.24155 123.55021 21218 ft 392 kts 330°
2026-04-26 14:48 10.26508 123.53645 21721 ft 395 kts 330°
2026-04-26 14:49 10.28914 123.52239 22214 ft 399 kts 330°
2026-04-26 14:49 10.31346 123.50819 22710 ft 402 kts 330°
2026-04-26 14:49 10.33784 123.49400 23194 ft 406 kts 330°
2026-04-26 14:49 10.36219 123.47980 23660 ft 409 kts 330°
2026-04-26 14:50 10.38715 123.46526 24144 ft 412 kts 330°
2026-04-26 14:50 10.41197 123.45077 24620 ft 415 kts 330°
2026-04-26 14:50 10.43737 123.43594 25078 ft 418 kts 330°
2026-04-26 14:50 10.46246 123.42127 25530 ft 421 kts 329°
2026-04-26 14:51 10.48794 123.40638 25980 ft 424 kts 329°
2026-04-26 14:51 10.51357 123.39140 26409 ft 426 kts 329°
2026-04-26 14:51 10.53932 123.37635 26834 ft 429 kts 329°
2026-04-26 14:51 10.56536 123.36112 27250 ft 432 kts 329°
2026-04-26 14:52 10.59171 123.34570 27659 ft 435 kts 329°
2026-04-26 14:52 10.61817 123.33025 28062 ft 438 kts 329°
2026-04-26 14:52 10.64461 123.31480 28460 ft 440 kts 329°
2026-04-26 14:52 10.67145 123.29911 28864 ft 443 kts 329°
2026-04-26 14:53 10.69807 123.28355 29245 ft 446 kts 329°
2026-04-26 14:53 10.72522 123.26769 29626 ft 448 kts 329°
2026-04-26 14:53 10.75209 123.25196 29990 ft 451 kts 328°
2026-04-26 14:53 10.77965 123.23583 30346 ft 454 kts 328°
2026-04-26 14:54 10.80688 123.21987 30689 ft 457 kts 328°
2026-04-26 14:54 10.83456 123.20364 31030 ft 460 kts 328°
2026-04-26 14:54 10.86268 123.18714 31364 ft 464 kts 328°
2026-04-26 14:54 10.89075 123.17067 31690 ft 467 kts 328°
2026-04-26 14:55 10.91874 123.15423 32015 ft 469 kts 328°
2026-04-26 14:55 10.93770 123.14310 32233 ft 471 kts 328°
2026-04-26 14:55 11.00611 123.10297 33034 ft 478 kts 328°
2026-04-26 14:56 11.03506 123.08600 33532 ft 478 kts 328°
2026-04-26 14:56 11.06367 123.06923 34122 ft 476 kts 328°
2026-04-26 14:56 11.09244 123.05234 34687 ft 474 kts 328°
2026-04-26 14:56 11.12105 123.03553 35138 ft 474 kts 328°
2026-04-26 14:57 11.14018 123.02428 35402 ft 475 kts 328°
2026-04-26 14:57 11.17858 123.00169 35842 ft 478 kts 328°
2026-04-26 14:57 11.20721 122.98484 35887 ft 480 kts 328°
2026-04-26 14:58 11.26542 122.95060 35892 ft 480 kts 328°
2026-04-26 14:58 11.32352 122.91638 35892 ft 480 kts 328°
2026-04-26 14:59 11.38123 122.88244 35893 ft 480 kts 328°
2026-04-26 14:59 11.43923 122.84831 35890 ft 480 kts 328°
2026-04-26 15:00 11.49694 122.81430 35885 ft 480 kts 328°
2026-04-26 15:00 11.55491 122.78010 35882 ft 480 kts 328°
2026-04-26 15:01 11.61220 122.74510 35883 ft 480 kts 325°
2026-04-26 15:01 11.66791 122.70779 35882 ft 479 kts 324°
2026-04-26 15:02 11.72352 122.67027 35884 ft 479 kts 324°
2026-04-26 15:02 11.77942 122.63259 35886 ft 478 kts 324°
2026-04-26 15:03 11.83489 122.59522 35895 ft 479 kts 324°
2026-04-26 15:03 11.89060 122.55765 35903 ft 479 kts 324°
2026-04-26 15:04 11.94591 122.52033 35906 ft 478 kts 324°
2026-04-26 15:04 12.00143 122.48286 35906 ft 478 kts 324°
2026-04-26 15:05 12.05693 122.44539 35906 ft 478 kts 324°
2026-04-26 15:05 12.11182 122.40829 35906 ft 478 kts 324°
2026-04-26 15:06 12.16723 122.37084 35906 ft 478 kts 324°
2026-04-26 15:06 12.22288 122.33321 35905 ft 477 kts 323°
2026-04-26 15:07 12.30573 122.27710 35654 ft 477 kts 323°
2026-04-26 15:07 12.33324 122.25846 35240 ft 474 kts 323°
2026-04-26 15:07 12.36069 122.23986 34718 ft 472 kts 324°
2026-04-26 15:08 12.38789 122.22128 34133 ft 470 kts 323°
2026-04-26 15:08 12.41497 122.20254 33523 ft 469 kts 323°
2026-04-26 15:08 12.44217 122.18363 32893 ft 468 kts 323°
2026-04-26 15:08 12.46896 122.16500 32367 ft 466 kts 323°
2026-04-26 15:09 12.49577 122.14637 32028 ft 463 kts 323°
2026-04-26 15:09 12.52227 122.12794 31670 ft 461 kts 323°
2026-04-26 15:09 12.54874 122.10954 31309 ft 458 kts 323°
2026-04-26 15:09 12.57486 122.09140 30944 ft 455 kts 323°
2026-04-26 15:10 12.60115 122.07313 30572 ft 452 kts 323°
2026-04-26 15:10 12.61840 122.06113 30325 ft 450 kts 323°
2026-04-26 15:10 12.65259 122.03733 29838 ft 446 kts 323°
2026-04-26 15:10 12.67845 122.01934 29462 ft 443 kts 323°
2026-04-26 15:11 12.70348 122.00192 29094 ft 440 kts 323°
2026-04-26 15:11 12.72914 121.98404 28718 ft 437 kts 323°
2026-04-26 15:11 12.75396 121.96674 28353 ft 434 kts 323°
2026-04-26 15:11 12.77895 121.94933 27981 ft 431 kts 323°
2026-04-26 15:12 12.80378 121.93202 27606 ft 428 kts 323°
2026-04-26 15:12 12.82837 121.91489 27230 ft 425 kts 323°
2026-04-26 15:12 12.85288 121.89780 26863 ft 422 kts 324°
2026-04-26 15:12 12.87722 121.88083 26497 ft 419 kts 324°
2026-04-26 15:13 12.90142 121.86395 26125 ft 416 kts 324°
2026-04-26 15:13 12.92509 121.84746 25762 ft 413 kts 324°
2026-04-26 15:13 12.94895 121.83081 25398 ft 410 kts 324°
2026-04-26 15:13 12.97264 121.81428 25038 ft 407 kts 324°
2026-04-26 15:14 12.99583 121.79808 24683 ft 404 kts 324°
2026-04-26 15:14 13.01896 121.78194 24328 ft 401 kts 324°
2026-04-26 15:14 13.04193 121.76589 23973 ft 398 kts 324°
2026-04-26 15:14 13.06487 121.74986 23611 ft 396 kts 324°
2026-04-26 15:15 13.08773 121.73389 23248 ft 393 kts 324°
2026-04-26 15:15 13.11004 121.71829 22884 ft 390 kts 325°
2026-04-26 15:15 13.13267 121.70248 22516 ft 388 kts 325°
2026-04-26 15:15 13.15485 121.68698 22165 ft 385 kts 325°
2026-04-26 15:16 13.17690 121.67157 21822 ft 382 kts 325°
2026-04-26 15:16 13.19894 121.65617 21464 ft 379 kts 325°
2026-04-26 15:16 13.22092 121.64078 21098 ft 377 kts 325°
2026-04-26 15:16 13.24231 121.62582 20738 ft 375 kts 325°
2026-04-26 15:17 13.26383 121.61076 20372 ft 373 kts 325°
2026-04-26 15:17 13.27816 121.60072 20132 ft 371 kts 325°
2026-04-26 15:17 13.30662 121.58079 19647 ft 369 kts 325°
2026-04-26 15:17 13.32768 121.56606 19278 ft 367 kts 325°
2026-04-26 15:18 13.34863 121.55137 18919 ft 365 kts 325°
2026-04-26 15:18 13.36956 121.53670 18560 ft 363 kts 325°
2026-04-26 15:18 13.39047 121.52204 18199 ft 361 kts 325°
2026-04-26 15:18 13.41140 121.50737 17838 ft 360 kts 325°
2026-04-26 15:19 13.43180 121.49307 17484 ft 358 kts 325°
2026-04-26 15:19 13.45242 121.47859 17132 ft 357 kts 325°
2026-04-26 15:19 13.47284 121.46427 16778 ft 355 kts 325°
2026-04-26 15:19 13.49336 121.44987 16416 ft 354 kts 326°
2026-04-26 15:20 13.51361 121.43565 16144 ft 349 kts 326°
2026-04-26 15:20 13.53339 121.42178 16072 ft 338 kts 326°
2026-04-26 15:20 13.55262 121.40828 16022 ft 326 kts 326°
2026-04-26 15:20 13.57101 121.39536 15993 ft 315 kts 325°
2026-04-26 15:21 13.58886 121.38240 15927 ft 316 kts 324°
2026-04-26 15:21 13.60671 121.36909 15921 ft 321 kts 324°
2026-04-26 15:21 13.62496 121.35541 15921 ft 322 kts 324°
2026-04-26 15:21 13.64303 121.34190 15932 ft 322 kts 323°
2026-04-26 15:22 13.66120 121.32832 15932 ft 323 kts 324°
2026-04-26 15:22 13.67953 121.31464 15935 ft 322 kts 324°
2026-04-26 15:22 13.69778 121.30104 15933 ft 322 kts 323°
2026-04-26 15:22 13.71560 121.28775 15723 ft 318 kts 324°
2026-04-26 15:23 13.73355 121.27436 15281 ft 317 kts 324°
2026-04-26 15:23 13.75147 121.26098 14837 ft 317 kts 324°
2026-04-26 15:23 13.76934 121.24764 14400 ft 316 kts 324°
2026-04-26 15:23 13.78722 121.23430 13972 ft 315 kts 324°
2026-04-26 15:24 13.80491 121.22109 13541 ft 314 kts 324°
2026-04-26 15:24 13.82251 121.20795 13130 ft 313 kts 324°
2026-04-26 15:24 13.84001 121.19488 12717 ft 312 kts 325°
2026-04-26 15:24 13.85766 121.18172 12316 ft 310 kts 325°
2026-04-26 15:25 13.87512 121.16868 11918 ft 308 kts 325°
2026-04-26 15:25 13.88656 121.16013 11655 ft 307 kts 325°
2026-04-26 15:25 13.90959 121.14293 11091 ft 305 kts 325°
2026-04-26 15:25 13.92675 121.13010 10647 ft 303 kts 325°
2026-04-26 15:26 13.94366 121.11746 10199 ft 302 kts 325°
2026-04-26 15:26 13.96072 121.10470 9744 ft 301 kts 325°
2026-04-26 15:26 13.97760 121.09208 9327 ft 299 kts 326°
2026-04-26 15:26 13.99436 121.07955 9059 ft 294 kts 326°
2026-04-26 15:27 14.01072 121.06732 8972 ft 286 kts 326°
2026-04-26 15:27 14.02685 121.05526 8668 ft 287 kts 326°
2026-04-26 15:27 14.04315 121.04307 8361 ft 288 kts 326°
2026-04-26 15:27 14.05942 121.03091 8070 ft 288 kts 326°
2026-04-26 15:28 14.07561 121.01880 7780 ft 288 kts 326°
2026-04-26 15:28 14.09174 121.00672 7498 ft 288 kts 326°
2026-04-26 15:28 14.10801 120.99455 7219 ft 287 kts 326°
2026-04-26 15:28 14.12422 120.98241 7015 ft 285 kts 326°
2026-04-26 15:29 14.14047 120.97025 6946 ft 287 kts 326°
2026-04-26 15:29 14.15648 120.95826 6665 ft 284 kts 326°
2026-04-26 15:29 14.18919 120.93618 5939 ft 276 kts 333°
2026-04-26 15:30 14.22218 120.91677 5362 ft 265 kts 333°
2026-04-26 15:30 14.23819 120.90736 5106 ft 258 kts 333°
2026-04-26 15:30 14.25322 120.89847 5002 ft 244 kts 333°
2026-04-26 15:31 14.26752 120.88999 4982 ft 226 kts 333°
2026-04-26 15:31 14.29310 120.87376 5007 ft 213 kts 328°
2026-04-26 15:31 14.30532 120.86488 5007 ft 213 kts 327°
2026-04-26 15:32 14.32542 120.85006 4946 ft 210 kts 327°
2026-04-26 15:32 14.34140 120.83822 4579 ft 211 kts 327°
2026-04-26 15:32 14.35338 120.82948 4288 ft 210 kts 333°
2026-04-26 15:33 14.36707 120.82552 3989 ft 202 kts
2026-04-26 15:33 14.38058 120.82906 3727 ft 197 kts 24°
2026-04-26 15:33 14.39330 120.83451 3477 ft 196 kts 26°
2026-04-26 15:33 14.40542 120.84121 3233 ft 194 kts 42°
2026-04-26 15:34 14.41451 120.85136 3031 ft 193 kts 56°
2026-04-26 15:34 14.42175 120.86282 2911 ft 188 kts 60°
2026-04-26 15:34 14.42820 120.87428 2726 ft 183 kts 61°
2026-04-26 15:34 14.43438 120.88560 2497 ft 176 kts 61°
2026-04-26 15:35 14.44024 120.89629 2272 ft 168 kts 61°
2026-04-26 15:35 14.44589 120.90655 2048 ft 161 kts 60°
2026-04-26 15:35 14.45133 120.91637 1840 ft 154 kts 60°
2026-04-26 15:35 14.45661 120.92587 1641 ft 147 kts 60°
2026-04-26 15:36 14.46156 120.93479 1460 ft 141 kts 60°
2026-04-26 15:36 14.46642 120.94353 1295 ft 140 kts 60°
2026-04-26 15:36 14.47131 120.95232 1127 ft 140 kts 62°
2026-04-26 15:36 14.47608 120.96094 958 ft 139 kts 60°
2026-04-26 15:37 14.48099 120.96973 775 ft 139 kts 61°
2026-04-26 15:37 14.48578 120.97837 593 ft 139 kts 63°
2026-04-26 15:37 14.49060 120.98712 415 ft 138 kts 62°
2026-04-26 15:37 14.49542 120.99573 253 ft 138 kts 63°
2026-04-26 15:38 14.50010 121.00427 116 ft 135 kts 62°
2026-04-26 15:38 14.50456 121.01235 90 ft 116 kts 59°
2026-04-26 15:38 14.50783 121.01813 90 ft 69 kts 60°
2026-04-26 15:38 14.50946 121.02103 90 ft 30 kts 59°
2026-04-26 15:39 14.51074 121.02243 90 ft 18 kts 41°
2026-04-26 15:39 14.51138 121.02297 90 ft 9 kts 30°
2026-04-26 15:39 14.51185 121.02280 90 ft 8 kts 282°
2026-04-26 15:39 14.51176 121.02236 90 ft 10 kts 244°
2026-04-26 15:40 14.51125 121.02141 90 ft 12 kts 239°
2026-04-26 15:40 14.51084 121.02068 90 ft 9 kts 240°
2026-04-26 15:40 14.51063 121.02013 90 ft 8 kts 277°
2026-04-26 15:40 14.51100 121.01957 90 ft 10 kts 313°
2026-04-26 15:41 14.51161 121.01893 90 ft 14 kts 315°
2026-04-26 15:41 14.51239 121.01813 90 ft 16 kts 315°
2026-04-26 15:41 14.51321 121.01727 90 ft 17 kts 314°
2026-04-26 15:41 14.51408 121.01637 90 ft 17 kts 314°
2026-04-26 15:42 14.51486 121.01556 90 ft 11 kts 315°
2026-04-26 15:42 14.51527 121.01515 90 ft 5 kts 321°
2026-04-26 15:42 14.51565 121.01521 90 ft 6 kts 33°
2026-04-26 15:42 14.51590 121.01543 90 ft 3 kts 42°
2026-04-26 15:43 14.51603 121.01556 90 ft 2 kts 45°